Time,TemperatureF,DewpointF,PressureIn,WindDirection,WindDirectionDegrees,WindSpeedMPH,WindSpeedGustMPH,Humidity,HourlyPrecipIn,Conditions,Clouds,dailyrainin,SoftwareType,DateUTC
2013-05-22 00:04:00,71.0,-99.9,-100.00,North,1,0.0,1.0,-999,0.00,,,0.00,,2013-05-22 04:04:00,
2013-05-22 00:13:00,71.0,-99.9,-100.00,North,1,0.0,1.0,-999,0.00,,,0.00,,2013-05-22 04:13:00,
2013-05-22 00:23:00,71.0,-99.9,-100.00,North,1,0.0,1.0,-999,0.00,,,0.00,,2013-05-22 04:23:00,
2013-05-22 00:33:00,71.0,-99.9,-100.00,North,0,0.0,1.0,-999,0.00,,,0.00,,2013-05-22 04:33:00,
2013-05-22 00:43:00,70.0,-99.9,-100.00,North,1,0.0,2.0,-999,0.00,,,0.00,,2013-05-22 04:43:00,
2013-05-22 00:53:00,70.0,-99.9,-100.00,North,1,0.0,2.0,-999,0.00,,,0.00,,2013-05-22 04:53:00,
2013-05-22 01:03:00,70.0,-99.9,-100.00,North,1,0.0,1.0,-999,0.00,,,0.00,,2013-05-22 05:03:00,
2013-05-22 01:12:00,70.0,-99.9,-100.00,North,1,0.0,1.0,-999,0.00,,,0.00,,2013-05-22 05:12:00,
2013-05-22 01:22:00,70.0,-99.9,-100.00,North,1,0.0,2.0,-999,0.00,,,0.00,,2013-05-22 05:22:00,
2013-05-22 01:32:00,70.0,-99.9,-100.00,North,1,0.0,0.0,-999,0.00,,,0.00,,2013-05-22 05:32:00,
2013-05-22 01:42:00,70.0,-99.9,-100.00,North,1,0.0,0.0,-999,0.00,,,0.00,,2013-05-22 05:42:00,
2013-05-22 01:52:00,69.0,-99.9,-100.00,North,0,0.0,3.0,-999,0.00,,,0.00,,2013-05-22 05:52:00,
2013-05-22 02:01:00,70.0,-99.9,-100.00,North,0,0.0,2.0,-999,0.00,,,0.00,,2013-05-22 06:01:00,
2013-05-22 02:12:00,70.0,-99.9,-100.00,North,0,0.0,2.0,-999,0.00,,,0.00,,2013-05-22 06:12:00,
2013-05-22 02:22:00,70.0,-99.9,-100.00,North,0,0.0,0.0,-999,0.00,,,0.00,,2013-05-22 06:22:00,
2013-05-22 02:32:00,70.0,-99.9,-100.00,North,0,0.0,1.0,-999,0.00,,,0.00,,2013-05-22 06:32:00,
2013-05-22 02:42:00,70.0,-99.9,-100.00,North,0,0.0,0.0,-999,0.00,,,0.00,,2013-05-22 06:42:00,
2013-05-22 02:52:00,70.0,-99.9,-100.00,North,0,0.0,0.0,-999,0.00,,,0.00,,2013-05-22 06:52:00,
2013-05-22 03:01:00,69.0,-99.9,-100.00,North,0,0.0,0.0,-999,0.00,,,0.00,,2013-05-22 07:01:00,
2013-05-22 03:11:00,69.0,-99.9,-100.00,North,0,0.0,0.0,-999,0.00,,,0.00,,2013-05-22 07:11:00,
2013-05-22 03:22:00,69.0,-99.9,-100.00,North,0,0.0,0.0,-999,0.00,,,0.00,,2013-05-22 07:22:00,
2013-05-22 03:32:00,69.0,-99.9,-100.00,North,0,1.0,3.0,-999,0.00,,,0.00,,2013-05-22 07:32:00,
2013-05-22 03:42:00,69.0,-99.9,-100.00,North,0,1.0,3.0,-999,0.00,,,0.00,,2013-05-22 07:42:00,
2013-05-22 03:53:00,69.0,-99.9,-100.00,North,0,0.0,2.0,-999,0.00,,,0.00,,2013-05-22 07:53:00,
2013-05-22 04:02:00,69.0,-99.9,-100.00,North,0,0.0,0.0,-999,0.00,,,0.00,,2013-05-22 08:02:00,
2013-05-22 04:11:00,69.0,-99.9,-100.00,North,0,0.0,0.0,-999,0.00,,,0.00,,2013-05-22 08:11:00,
2013-05-22 04:22:00,69.0,-99.9,-100.00,North,0,0.0,0.0,-999,0.00,,,0.00,,2013-05-22 08:22:00,
2013-05-22 04:32:00,69.0,-99.9,-100.00,North,0,0.0,0.0,-999,0.00,,,0.00,,2013-05-22 08:32:00,
2013-05-22 04:42:00,69.0,-99.9,-100.00,North,0,0.0,0.0,-999,0.00,,,0.00,,2013-05-22 08:42:00,
2013-05-22 04:52:00,69.0,-99.9,-100.00,North,0,0.0,0.0,-999,0.00,,,0.00,,2013-05-22 08:52:00,
2013-05-22 05:01:00,69.0,-99.9,-100.00,North,0,0.0,3.0,-999,0.00,,,0.00,,2013-05-22 09:01:00,
2013-05-22 05:12:00,69.0,-99.9,-100.00,North,0,0.0,3.0,-999,0.00,,,0.00,,2013-05-22 09:12:00,
2013-05-22 05:22:00,69.0,-99.9,-100.00,North,0,1.0,3.0,-999,0.00,,,0.00,,2013-05-22 09:22:00,
2013-05-22 05:33:00,69.0,-99.9,-100.00,North,0,2.0,6.0,-999,0.00,,,0.00,,2013-05-22 09:33:00,
2013-05-22 05:43:00,69.0,-99.9,-100.00,North,0,2.0,6.0,-999,0.00,,,0.00,,2013-05-22 09:43:00,
2013-05-22 05:53:00,69.0,-99.9,-100.00,North,1,3.0,8.0,-999,0.00,,,0.00,,2013-05-22 09:53:00,
2013-05-22 06:03:00,68.0,-99.9,-100.00,North,5,4.0,8.0,-999,0.00,,,0.00,,2013-05-22 10:03:00,
2013-05-22 06:13:00,68.0,-99.9,-100.00,North,5,4.0,8.0,-999,0.00,,,0.00,,2013-05-22 10:13:00,
2013-05-22 06:23:00,67.0,-99.9,-100.00,North,0,0.0,7.0,-999,0.00,,,0.00,,2013-05-22 10:23:00,
2013-05-22 06:33:00,67.0,-99.9,-100.00,North,2,2.0,9.0,-999,0.00,,,0.00,,2013-05-22 10:33:00,
2013-05-22 06:42:00,67.0,-99.9,-100.00,North,2,2.0,9.0,-999,0.00,,,0.00,,2013-05-22 10:42:00,
2013-05-22 06:53:00,66.0,-99.9,-100.00,North,0,5.0,12.0,-999,0.00,,,0.00,,2013-05-22 10:53:00,
2013-05-22 07:02:00,66.0,-99.9,-100.00,North,7,1.0,10.0,-999,0.00,,,0.00,,2013-05-22 11:02:00,
2013-05-22 07:12:00,66.0,-99.9,-100.00,North,7,1.0,10.0,-999,0.00,,,0.00,,2013-05-22 11:12:00,
2013-05-22 07:22:00,65.0,-99.9,-100.00,North,1,5.0,10.0,-999,0.00,,,0.00,,2013-05-22 11:22:00,
2013-05-22 07:32:00,65.0,-99.9,-100.00,North,0,2.0,14.0,-999,0.00,,,0.00,,2013-05-22 11:32:00,
2013-05-22 07:42:00,65.0,-99.9,-100.00,North,0,2.0,14.0,-999,0.00,,,0.00,,2013-05-22 11:42:00,
2013-05-22 07:53:00,66.0,-99.9,-100.00,North,1,3.0,9.0,-999,0.00,,,0.00,,2013-05-22 11:53:00,
2013-05-22 08:02:00,66.0,-99.9,-100.00,North,0,4.0,8.0,-999,0.00,,,0.00,,2013-05-22 12:02:00,
2013-05-22 08:12:00,66.0,-99.9,-100.00,North,0,4.0,8.0,-999,0.00,,,0.00,,2013-05-22 12:12:00,
2013-05-22 08:22:00,66.0,-99.9,-100.00,North,0,3.0,8.0,-999,0.00,,,0.00,,2013-05-22 12:22:00,
2013-05-22 08:32:00,69.0,-99.9,-100.00,North,2,2.0,6.0,-999,0.00,,,0.00,,2013-05-22 12:32:00,
2013-05-22 08:43:00,69.0,-99.9,-100.00,North,2,2.0,6.0,-999,0.00,,,0.00,,2013-05-22 12:43:00,
2013-05-22 08:52:00,69.0,-99.9,-100.00,North,0,2.0,5.0,-999,0.00,,,0.00,,2013-05-22 12:52:00,
2013-05-22 09:02:00,69.0,-99.9,-100.00,North,0,1.0,8.0,-999,0.00,,,0.00,,2013-05-22 13:02:00,
2013-05-22 09:12:00,69.0,-99.9,-100.00,North,0,1.0,8.0,-999,0.00,,,0.00,,2013-05-22 13:12:00,
2013-05-22 09:22:00,69.0,-99.9,-100.00,North,0,1.0,5.0,-999,0.00,,,0.00,,2013-05-22 13:22:00,
2013-05-22 09:32:00,69.0,-99.9,-100.00,North,0,1.0,3.0,-999,0.00,,,0.00,,2013-05-22 13:32:00,
2013-05-22 09:42:00,69.0,-99.9,-100.00,North,0,1.0,3.0,-999,0.00,,,0.00,,2013-05-22 13:42:00,
2013-05-22 09:52:00,69.0,-99.9,-100.00,North,0,2.0,5.0,-999,0.00,,,0.00,,2013-05-22 13:52:00,
2013-05-22 10:02:00,68.0,-99.9,-100.00,North,0,0.0,3.0,-999,0.00,,,0.00,,2013-05-22 14:02:00,
2013-05-22 10:11:00,68.0,-99.9,-100.00,North,0,0.0,3.0,-999,0.00,,,0.00,,2013-05-22 14:11:00,
2013-05-22 10:22:00,68.0,-99.9,-100.00,North,0,1.0,5.0,-999,0.00,,,0.00,,2013-05-22 14:22:00,
2013-05-22 10:32:00,69.0,-99.9,-100.00,North,0,1.0,3.0,-999,0.00,,,0.00,,2013-05-22 14:32:00,
2013-05-22 10:42:00,69.0,-99.9,-100.00,North,0,1.0,3.0,-999,0.00,,,0.00,,2013-05-22 14:42:00,
2013-05-22 10:53:00,70.0,-99.9,-100.00,North,0,1.0,5.0,-999,0.00,,,0.00,,2013-05-22 14:53:00,
2013-05-22 11:02:00,70.0,-99.9,-100.00,North,0,0.0,2.0,-999,0.00,,,0.00,,2013-05-22 15:02:00,
2013-05-22 11:11:00,70.0,-99.9,-100.00,North,0,0.0,2.0,-999,0.00,,,0.00,,2013-05-22 15:11:00,
2013-05-22 11:22:00,71.0,-99.9,-100.00,North,0,0.0,3.0,-999,0.00,,,0.00,,2013-05-22 15:22:00,
2013-05-22 11:33:00,72.0,-99.9,-100.00,North,0,0.0,3.0,-999,0.00,,,0.00,,2013-05-22 15:33:00,
2013-05-22 11:43:00,72.0,-99.9,-100.00,North,0,0.0,3.0,-999,0.00,,,0.00,,2013-05-22 15:43:00,
2013-05-22 11:53:00,72.0,-99.9,-100.00,North,0,0.0,2.0,-999,0.00,,,0.00,,2013-05-22 15:53:00,
2013-05-22 12:03:00,74.0,-99.9,-100.00,North,0,1.0,3.0,-999,0.00,,,0.00,,2013-05-22 16:03:00,
2013-05-22 12:13:00,74.0,-99.9,-100.00,North,0,1.0,3.0,-999,0.00,,,0.00,,2013-05-22 16:13:00,
2013-05-22 12:23:00,75.0,-99.9,-100.00,North,0,2.0,3.0,-999,0.00,,,0.00,,2013-05-22 16:23:00,
2013-05-22 12:33:00,77.0,-99.9,-100.00,North,0,0.0,3.0,-999,0.00,,,0.00,,2013-05-22 16:33:00,
2013-05-22 12:42:00,77.0,-99.9,-100.00,North,0,0.0,3.0,-999,0.00,,,0.00,,2013-05-22 16:42:00,
2013-05-22 12:53:00,77.0,-99.9,-100.00,North,0,0.0,2.0,-999,0.00,,,0.00,,2013-05-22 16:53:00,
2013-05-22 13:02:00,77.0,-99.9,-100.00,North,0,0.0,2.0,-999,0.00,,,0.00,,2013-05-22 17:02:00,
2013-05-22 13:12:00,77.0,-99.9,-100.00,North,0,0.0,2.0,-999,0.00,,,0.00,,2013-05-22 17:12:00,
2013-05-22 13:23:00,77.0,-99.9,-100.00,North,0,0.0,2.0,-999,0.00,,,0.00,,2013-05-22 17:23:00,
2013-05-22 13:33:00,77.0,-99.9,-100.00,North,0,0.0,2.0,-999,0.00,,,0.00,,2013-05-22 17:33:00,
2013-05-22 13:42:00,77.0,-99.9,-100.00,North,0,0.0,2.0,-999,0.00,,,0.00,,2013-05-22 17:42:00,
2013-05-22 13:54:00,78.0,-99.9,-100.00,North,1,0.0,3.0,-999,0.00,,,0.00,,2013-05-22 17:54:00,
2013-05-22 14:02:00,80.0,-99.9,-100.00,North,0,0.0,3.0,-999,0.00,,,0.00,,2013-05-22 18:02:00,
2013-05-22 14:14:00,80.0,-99.9,-100.00,North,0,0.0,3.0,-999,0.00,,,0.00,,2013-05-22 18:14:00,
2013-05-22 14:23:00,79.0,-99.9,-100.00,North,0,0.0,1.0,-999,0.00,,,0.00,,2013-05-22 18:23:00,
2013-05-22 14:34:00,79.0,-99.9,-100.00,North,0,0.0,1.0,-999,0.00,,,0.00,,2013-05-22 18:34:00,
2013-05-22 14:42:00,79.0,-99.9,-100.00,North,0,0.0,1.0,-999,0.00,,,0.00,,2013-05-22 18:42:00,
2013-05-22 14:52:00,79.0,-99.9,-100.00,North,0,0.0,1.0,-999,0.00,,,0.00,,2013-05-22 18:52:00,
2013-05-22 15:02:00,81.0,-99.9,-100.00,North,0,4.0,6.0,-999,0.00,,,0.00,,2013-05-22 19:02:00,
2013-05-22 15:11:00,81.0,-99.9,-100.00,North,0,4.0,6.0,-999,0.00,,,0.00,,2013-05-22 19:11:00,
2013-05-22 15:22:00,80.0,-99.9,-100.00,North,0,1.0,5.0,-999,0.00,,,0.00,,2013-05-22 19:22:00,
2013-05-22 15:32:00,83.0,-99.9,-100.00,North,0,0.0,3.0,-999,0.00,,,0.00,,2013-05-22 19:32:00,
2013-05-22 15:42:00,83.0,-99.9,-100.00,North,0,0.0,3.0,-999,0.00,,,0.00,,2013-05-22 19:42:00,
2013-05-22 15:52:00,89.0,-99.9,-100.00,North,0,1.0,5.0,-999,0.00,,,0.00,,2013-05-22 19:52:00,
2013-05-22 16:02:00,91.0,-99.9,-100.00,North,0,1.0,6.0,-999,0.00,,,0.00,,2013-05-22 20:02:00,
2013-05-22 16:11:00,91.0,-99.9,-100.00,North,0,1.0,6.0,-999,0.00,,,0.00,,2013-05-22 20:11:00,
2013-05-22 16:22:00,85.0,-99.9,-100.00,North,1,0.0,5.0,-999,0.00,,,0.00,,2013-05-22 20:22:00,
2013-05-22 16:32:00,84.0,-99.9,-100.00,North,1,0.0,5.0,-999,0.00,,,0.00,,2013-05-22 20:32:00,
2013-05-22 16:42:00,84.0,-99.9,-100.00,North,1,0.0,5.0,-999,0.00,,,0.00,,2013-05-22 20:42:00,
2013-05-22 16:52:00,82.0,-99.9,-100.00,North,1,0.0,2.0,-999,0.00,,,0.00,,2013-05-22 20:52:00,
2013-05-22 17:02:00,80.0,-99.9,-100.00,North,0,1.0,7.0,-999,0.00,,,0.00,,2013-05-22 21:02:00,
2013-05-22 17:11:00,80.0,-99.9,-100.00,North,0,1.0,7.0,-999,0.00,,,0.00,,2013-05-22 21:11:00,
2013-05-22 17:22:00,80.0,-99.9,-100.00,North,1,1.0,7.0,-999,0.00,,,0.00,,2013-05-22 21:22:00,
2013-05-22 17:33:00,79.0,-99.9,-100.00,North,0,1.0,6.0,-999,0.00,,,0.00,,2013-05-22 21:33:00,
2013-05-22 17:42:00,79.0,-99.9,-100.00,North,0,1.0,6.0,-999,0.00,,,0.00,,2013-05-22 21:42:00,
2013-05-22 17:53:00,79.0,-99.9,-100.00,North,0,2.0,10.0,-999,0.00,,,0.00,,2013-05-22 21:53:00,
2013-05-22 18:03:00,78.0,-99.9,-100.00,North,0,1.0,3.0,-999,0.00,,,0.00,,2013-05-22 22:03:00,
2013-05-22 18:13:00,78.0,-99.9,-100.00,North,0,1.0,3.0,-999,0.00,,,0.00,,2013-05-22 22:13:00,
2013-05-22 18:22:00,78.0,-99.9,-100.00,North,0,1.0,3.0,-999,0.00,,,0.00,,2013-05-22 22:22:00,
2013-05-22 18:33:00,78.0,-99.9,-100.00,North,0,1.0,6.0,-999,0.00,,,0.00,,2013-05-22 22:33:00,
2013-05-22 18:42:00,78.0,-99.9,-100.00,North,0,1.0,6.0,-999,0.00,,,0.00,,2013-05-22 22:42:00,
2013-05-22 18:52:00,78.0,-99.9,-100.00,North,0,1.0,6.0,-999,0.00,,,0.00,,2013-05-22 22:52:00,
2013-05-22 19:02:00,77.0,-99.9,-100.00,North,0,0.0,3.0,-999,0.00,,,0.00,,2013-05-22 23:02:00,
2013-05-22 19:13:00,77.0,-99.9,-100.00,North,0,0.0,3.0,-999,0.00,,,0.00,,2013-05-22 23:13:00,
2013-05-22 19:22:00,76.0,-99.9,-100.00,North,0,1.0,5.0,-999,0.00,,,0.00,,2013-05-22 23:22:00,
2013-05-22 19:32:00,76.0,-99.9,-100.00,North,0,1.0,5.0,-999,0.00,,,0.00,,2013-05-22 23:32:00,
2013-05-22 19:42:00,76.0,-99.9,-100.00,North,0,1.0,5.0,-999,0.00,,,0.00,,2013-05-22 23:42:00,
2013-05-22 19:53:00,75.0,-99.9,-100.00,North,0,1.0,5.0,-999,0.00,,,0.00,,2013-05-22 23:53:00,
2013-05-22 20:02:00,75.0,-99.9,-100.00,North,0,1.0,7.0,-999,0.00,,,0.00,,2013-05-23 00:02:00,
2013-05-22 20:11:00,75.0,-99.9,-100.00,North,0,1.0,7.0,-999,0.00,,,0.00,,2013-05-23 00:11:00,
2013-05-22 20:22:00,74.0,-99.9,-100.00,North,1,0.0,3.0,-999,0.00,,,0.00,,2013-05-23 00:22:00,
2013-05-22 20:32:00,74.0,-99.9,-100.00,North,2,2.0,5.0,-999,0.00,,,0.00,,2013-05-23 00:32:00,
2013-05-22 20:42:00,74.0,-99.9,-100.00,North,2,2.0,5.0,-999,0.00,,,0.00,,2013-05-23 00:42:00,
2013-05-22 20:52:00,73.0,-99.9,-100.00,North,1,1.0,3.0,-999,0.00,,,0.00,,2013-05-23 00:52:00,
2013-05-22 21:02:00,72.0,-99.9,-100.00,North,1,0.0,3.0,-999,0.00,,,0.00,,2013-05-23 01:02:00,
2013-05-22 21:11:00,72.0,-99.9,-100.00,North,1,0.0,3.0,-999,0.00,,,0.00,,2013-05-23 01:11:00,
2013-05-22 21:22:00,71.0,-99.9,-100.00,North,1,0.0,0.0,-999,0.00,,,0.00,,2013-05-23 01:22:00,
2013-05-22 21:32:00,71.0,-99.9,-100.00,North,1,0.0,1.0,-999,0.00,,,0.00,,2013-05-23 01:32:00,
2013-05-22 21:42:00,70.0,-99.9,-100.00,North,1,0.0,1.0,-999,0.00,,,0.00,,2013-05-23 01:42:00,
2013-05-22 21:52:00,70.0,-99.9,-100.00,North,1,0.0,1.0,-999,0.00,,,0.00,,2013-05-23 01:52:00,
2013-05-22 22:02:00,70.0,-99.9,-100.00,North,1,0.0,0.0,-999,0.00,,,0.00,,2013-05-23 02:02:00,
2013-05-22 22:11:00,70.0,-99.9,-100.00,North,1,0.0,0.0,-999,0.00,,,0.00,,2013-05-23 02:11:00,
2013-05-22 22:22:00,70.0,-99.9,-100.00,North,1,0.0,0.0,-999,0.00,,,0.00,,2013-05-23 02:22:00,
2013-05-22 22:32:00,70.0,-99.9,-100.00,North,0,0.0,5.0,-999,0.00,,,0.00,,2013-05-23 02:32:00,
2013-05-22 22:42:00,70.0,-99.9,-100.00,North,0,0.0,5.0,-999,0.00,,,0.00,,2013-05-23 02:42:00,
2013-05-22 22:52:00,70.0,-99.9,-100.00,North,0,0.0,5.0,-999,0.00,,,0.00,,2013-05-23 02:52:00,
2013-05-22 23:02:00,71.0,-99.9,-100.00,North,0,0.0,3.0,-999,0.00,,,0.00,,2013-05-23 03:02:00,
2013-05-22 23:11:00,71.0,-99.9,-100.00,North,0,0.0,3.0,-999,0.00,,,0.00,,2013-05-23 03:11:00,
2013-05-22 23:22:00,72.0,-99.9,-100.00,North,0,0.0,2.0,-999,0.00,,,0.00,,2013-05-23 03:22:00,
2013-05-22 23:33:00,71.0,-99.9,-100.00,North,0,0.0,1.0,-999,0.00,,,0.00,,2013-05-23 03:33:00,
2013-05-22 23:43:00,71.0,-99.9,-100.00,North,0,0.0,1.0,-999,0.00,,,0.00,,2013-05-23 03:43:00,
2013-05-22 23:53:00,71.0,-99.9,-100.00,North,1,0.0,3.0,-999,0.00,,,0.00,,2013-05-23 03:53:00,